| time (UTC) | temp C | wind direction | speed KPH | gust KPH | rain 1hr cm | rain 24hr cm | rain mn cm | humidity % | barometer mb |
| 20260505001548 | 16 | 0 | 0.0 | 0.0 | 0.00 | 0.00 | 0.00 | 54 | 1007.2 |
| 20260505000058 | 16 | 0 | 0.0 | 0.0 | 0.00 | 0.00 | 0.00 | 51 | 1006.8 |
| 20260504234549 | 17 | 0 | 0.0 | 1.6 | 0.00 | 0.00 | 0.00 | 48 | 1006.5 |
| 20260504233106 | 18 | 0 | 0.0 | 1.6 | 0.00 | 0.00 | 0.00 | 45 | 1006.5 |
| 20260504231550 | 18 | 0 | 0.0 | 3.2 | 0.00 | 0.00 | 0.00 | 44 | 1006.4 |
| 20260504230050 | 19 | 0 | 0.0 | 1.6 | 0.00 | 0.00 | 0.00 | 41 | 1006.0 |
| 20260504224550 | 20 | 0 | 0.0 | 3.2 | 0.00 | 0.00 | 0.00 | 39 | 1005.9 |
| 20260504223100 | 20 | 0 | 3.2 | 9.7 | 0.00 | 0.00 | 0.00 | 35 | 1005.8 |
| 20260504221550 | 20 | 0 | 0.0 | 8.0 | 0.00 | 0.00 | 0.00 | 34 | 1005.9 |
| 20260504220050 | 21 | 0 | 0.0 | 3.2 | 0.00 | 0.00 | 0.00 | 35 | 1005.8 |
| 20260504214551 | 21 | 304 | 1.6 | 16.1 | 0.00 | 0.00 | 0.00 | 32 | 1005.8 |
| 20260504213100 | 22 | 198 | 1.6 | 9.7 | 0.00 | 0.00 | 0.00 | 32 | 1005.6 |
| 20260504211549 | 22 | 0 | 0.0 | 8.0 | 0.00 | 0.00 | 0.00 | 33 | 1005.9 |
| 20260504210045 | 22 | 196 | 0.0 | 8.0 | 0.00 | 0.00 | 0.00 | 32 | 1005.6 |
| 20260504204547 | 22 | 336 | 3.2 | 9.7 | 0.00 | 0.00 | 0.00 | 31 | 1005.6 |
| 20260504203059 | 22 | 319 | 3.2 | 14.5 | 0.00 | 0.00 | 0.00 | 31 | 1005.6 |
| 20260504201540 | 22 | 0 | 3.2 | 14.5 | 0.00 | 0.00 | 0.00 | 31 | 1005.6 |
| 20260504200046 | 22 | 0 | 3.2 | 14.5 | 0.00 | 0.00 | 0.00 | 33 | 1005.9 |
| 20260504194546 | 22 | 0 | 0.0 | 9.7 | 0.00 | 0.00 | 0.00 | 31 | 1005.8 |
| 20260504193044 | 23 | 249 | 1.6 | 14.5 | 0.00 | 0.00 | 0.00 | 30 | 1005.8 |
| 20260504191548 | 22 | 0 | 1.6 | 12.9 | 0.00 | 0.00 | 0.00 | 30 | 1005.9 |
| 20260504190051 | 23 | 223 | 3.2 | 16.1 | 0.00 | 0.00 | 0.00 | 31 | 1006.0 |
| 20260504184547 | 23 | 0 | 3.2 | 17.7 | 0.00 | 0.00 | 0.00 | 29 | 1005.9 |
| 20260504183046 | 22 | 242 | 4.8 | 16.1 | 0.00 | 0.00 | 0.00 | 29 | 1006.0 |
| 20260504181549 | 21 | 5 | 1.6 | 19.3 | 0.00 | 0.00 | 0.00 | 31 | 1006.0 |
| 20260504180051 | 20 | 0 | 3.2 | 14.5 | 0.00 | 0.00 | 0.00 | 33 | 1006.0 |
| 20260504174554 | 20 | 259 | 0.0 | 16.1 | 0.00 | 0.00 | 0.00 | 31 | 1006.2 |
| 20260504173050 | 22 | 136 | 1.6 | 16.1 | 0.00 | 0.00 | 0.00 | 32 | 1006.3 |
| 20260504171554 | 22 | 215 | 3.2 | 19.3 | 0.00 | 0.00 | 0.00 | 30 | 1006.4 |
| 20260504081553 | 2 | 0 | 0.0 | 0.0 | 0.00 | 0.03 | 0.00 | 92 | 1009.5 |
| 20260504044559 | 0 | 0 | 0.0 | 0.0 | 0.00 | 0.03 | 0.00 | 90 | 1009.5 |
| 20260504043057 | 0 | 0 | 0.0 | 0.0 | 0.00 | 0.03 | 0.00 | 89 | 1009.6 |
| 20260504041544 | 0 | 0 | 0.0 | 0.0 | 0.00 | 0.03 | 0.00 | 88 | 1009.5 |
| 20260504040105 | 0 | 0 | 0.0 | 0.0 | 0.00 | 0.03 | 0.00 | 88 | 1009.4 |
| 20260504034609 | 1 | 0 | 0.0 | 0.0 | 0.00 | 0.03 | 0.03 | 87 | 1009.4 |
| 20260504033051 | 1 | 0 | 0.0 | 0.0 | 0.00 | 0.03 | 0.03 | 86 | 1009.3 |
| 20260504031546 | 1 | 0 | 0.0 | 0.0 | 0.00 | 0.03 | 0.03 | 85 | 1009.2 |
| 20260504024549 | 2 | 0 | 0.0 | 0.0 | 0.00 | 0.03 | 0.03 | 83 | 1009.2 |
| 20260504023051 | 2 | 0 | 0.0 | 0.0 | 0.00 | 0.03 | 0.03 | 82 | 1009.2 |
| 20260504021552 | 3 | 0 | 0.0 | 0.0 | 0.00 | 0.03 | 0.03 | 80 | 1009.2 |
| 20260504020047 | 3 | 0 | 0.0 | 0.0 | 0.00 | 0.03 | 0.03 | 79 | 1009.1 |
| 20260504014545 | 3 | 0 | 0.0 | 0.0 | 0.00 | 0.08 | 0.03 | 77 | 1009.1 |
| 20260504013051 | 4 | 0 | 0.0 | 0.0 | 0.00 | 0.08 | 0.03 | 76 | 1008.9 |
| 20260504011551 | 5 | 0 | 0.0 | 0.0 | 0.00 | 0.08 | 0.03 | 74 | 1009.0 |
| 20260504010048 | 5 | 0 | 0.0 | 0.0 | 0.00 | 0.08 | 0.03 | 70 | 1008.9 |
| 20260504004546 | 6 | 0 | 0.0 | 0.0 | 0.00 | 0.23 | 0.03 | 67 | 1008.5 |
| 20260504003048 | 7 | 0 | 0.0 | 0.0 | 0.00 | 0.23 | 0.03 | 63 | 1008.3 |